CW8192 Weather Reports


Display with metric or nautical units.
time (UTC)temp
F
wind
direction
speed
MPH
gust
MPH
rain 1hr
in
rain 24hr
in
rain mn
in
humidity
%
barometer
mb
20260906185705 72 357 2.0 3.0 0.00 0.00 0.00 70 1015.9
20260906185205 72 73 1.0 3.0 0.00 0.00 0.00 69 1015.8
20260906184205 71 336 2.0 3.0 0.00 0.00 0.00 71 1015.9
20260906183705 70 17 1.0 3.0 0.00 0.00 0.00 74 1015.9
20260906182705 70 84 1.0 3.0 0.00 0.00 0.00 73 1016.1
20260906182205 70 336 0.0 2.0 0.00 0.00 0.00 76 1016.1
20260906181705 70 322 2.0 3.0 0.00 0.00 0.00 74 1016.1
20260906181205 70 20 0.0 3.0 0.00 0.00 0.00 74 1016.1
20260906180705 71 4 2.0 3.0 0.00 0.00 0.00 73 1016.1
20260906180205 71 301 2.0 3.0 0.00 0.00 0.00 70 1016.0
20260906175705 71 54 2.0 6.0 0.00 0.00 0.00 72 1016.0
20260906175205 70 15 1.0 10.0 0.00 0.00 0.00 72 1016.1
20260906174704 70 349 1.0 6.0 0.00 0.00 0.00 70 1016.1
20260906174204 71 343 1.0 3.0 0.00 0.00 0.00 76 1016.0
20260906173705 70 308 1.0 3.0 0.00 0.00 0.00 74 1016.1
20260906173205 70 73 2.0 3.0 0.00 0.00 0.00 73 1016.3
20260906172705 70 315 2.0 3.0 0.00 0.00 0.00 75 1016.3
20260906171706 68 14 1.0 7.0 0.00 0.00 0.00 79 1016.4
20260906170705 68 335 1.0 3.0 0.00 0.00 0.00 78 1016.3
20260906170205 69 67 2.0 3.0 0.00 0.00 0.00 76 1016.3
20260906165705 69 195 1.0 3.0 0.00 0.00 0.00 78 1016.3
20260906165205 68 315 1.0 3.0 0.00 0.00 0.00 78 1016.2
20260906164705 68 99 1.0 3.0 0.00 0.00 0.00 76 1016.3
20260906164205 69 352 2.0 3.0 0.00 0.00 0.00 77 1016.3
20260906163705 68 318 2.0 3.0 0.00 0.00 0.00 77 1016.3
20260906163205 69 307 2.0 5.0 0.00 0.00 0.00 79 1016.3
20260906162705 69 18 2.0 3.0 0.00 0.00 0.00 78 1016.4
20260906162204 68 35 1.0 3.0 0.00 0.00 0.00 77 1016.5
20260906161706 67 5 1.0 3.0 0.00 0.00 0.00 81 1016.4
20260906161205 67 192 1.0 3.0 0.00 0.00 0.00 77 1016.5
20260906160706 68 39 1.0 5.0 0.00 0.00 0.00 79 1016.4
20260906160205 67 31 2.0 5.0 0.00 0.00 0.00 82 1016.5
20260906155705 67 24 2.0 3.0 0.00 0.00 0.00 81 1016.5
20260906155204 66 306 2.0 3.0 0.00 0.00 0.00 80 1016.5
20260906154705 66 356 2.0 3.0 0.00 0.00 0.00 82 1016.5
20260906154204 65 327 2.0 5.0 0.00 0.00 0.00 83 1016.5
20260906153705 65 348 2.0 3.0 0.00 0.00 0.00 83 1016.5
20260906152705 65 330 2.0 3.0 0.00 0.00 0.00 85 1016.4
20260906151705 65 285 1.0 2.0 0.00 0.00 0.00 82 1016.3
20260906151205 65 23 1.0 3.0 0.00 0.00 0.00 82 1016.4
20260906150205 65 314 1.0 3.0 0.00 0.00 0.00 84 1016.3
20260906145705 65 340 2.0 3.0 0.00 0.00 0.00 84 1016.4
20260906145204 65 342 2.0 3.0 0.00 0.00 0.00 84 1016.3
20260906144704 65 317 1.0 3.0 0.00 0.00 0.00 83 1016.3
20260906144204 66 270 1.0 3.0 0.00 0.00 0.00 81 1016.2
20260906143705 66 342 1.0 3.0 0.00 0.00 0.00 85 1016.1
20260906143204 65 339 2.0 3.0 0.00 0.00 0.00 85 1016.1
20260906142704 63 68 0.0 2.0 0.00 0.00 0.00 86 1016.1
20260906142205 63 322 1.0 3.0 0.00 0.00 0.00 86 1016.1
20260906141704 64 332 1.0 2.0 0.00 0.00 0.00 88 1016.1
20260906140704 63 42 0.0 2.0 0.00 0.00 0.00 88 1016.1
20260906140205 63 354 1.0 3.0 0.00 0.00 0.00 88 1016.1
20260906135705 63 28 1.0 2.0 0.00 0.00 0.00 88 1016.0
20260906135205 63 343 1.0 3.0 0.00 0.00 0.00 89 1016.0
20260906134705 63 337 2.0 3.0 0.00 0.00 0.00 89 1016.0
20260906134205 63 52 1.0 3.0 0.00 0.00 0.00 89 1016.0
20260906133704 63 314 2.0 3.0 0.00 0.00 0.00 88 1015.9
20260906133205 63 41 1.0 3.0 0.00 0.00 0.00 89 1015.9
20260906132204 62 82 1.0 3.0 0.00 0.00 0.00 90 1015.9
20260906131704 62 77 3.0 7.0 0.00 0.00 0.00 88 1015.8
20260906131205 62 317 2.0 3.0 0.00 0.00 0.00 90 1015.7
20260906130705 62 298 2.0 8.0 0.00 0.00 0.00 89 1015.8
20260906130204 62 311 1.0 2.0 0.00 0.00 0.00 90 1015.7
20260906125705 62 338 1.0 3.0 0.00 0.00 0.00 91 1015.8
20260906125204 62 323 1.0 3.0 0.00 0.00 0.00 91 1015.8
20260906124704 61 29 1.0 3.0 0.00 0.00 0.00 91 1015.8
20260906124205 61 26 2.0 5.0 0.00 0.00 0.00 90 1015.7
20260906123705 62 30 1.0 5.0 0.00 0.00 0.00 89 1015.7
20260906123204 62 20 1.0 3.0 0.00 0.00 0.00 89 1015.7
20260906122704 63 11 1.0 3.0 0.00 0.00 0.00 89 1015.6
20260906122205 62 340 1.0 3.0 0.00 0.00 0.00 91 1015.5
20260906121704 62 347 1.0 3.0 0.00 0.00 0.00 91 1015.4
20260906121205 61 315 1.0 3.0 0.00 0.00 0.00 92 1015.3
20260906120704 61 359 1.0 2.0 0.00 0.00 0.00 94 1015.3
20260906120204 60 343 0.0 0.0 0.00 0.00 0.00 94 1015.3
20260906115704 60 353 0.0 2.0 0.00 0.00 0.00 95 1015.2
20260906115204 60 26 1.0 3.0 0.00 0.00 0.00 95 1015.1
20260906114205 60 5 0.0 2.0 0.00 0.00 0.00 95 1014.9
20260906113705 60 5 0.0 1.0 0.00 0.00 0.00 95 1014.9
20260906113204 60 5 0.0 0.0 0.00 0.00 0.00 96 1015.0
20260906112704 60 353 0.0 0.0 0.00 0.00 0.00 96 1014.9
20260906112204 60 355 0.0 0.0 0.00 0.00 0.00 96 1014.9
20260906111704 60 355 0.0 0.0 0.00 0.00 0.00 97 1014.8
20260906111205 60 329 0.0 0.0 0.00 0.00 0.00 97 1014.8
20260906110705 60 5 0.0 0.0 0.00 0.00 0.00 97 1014.8
20260906110204 59 355 0.0 0.0 0.00 0.00 0.00 97 1014.6
20260906105705 59 9 0.0 0.0 0.00 0.00 0.00 97 1014.6
20260906105205 59 9 0.0 0.0 0.00 0.00 0.00 97 1014.6
20260906104705 59 9 0.0 0.0 0.00 0.00 0.00 97 1014.5
20260906104206 59 39 0.0 0.0 0.00 0.00 0.00 97 1014.4
20260906103704 59 39 0.0 0.0 0.00 0.00 0.00 97 1014.4
20260906103204 59 39 0.0 0.0 0.00 0.00 0.00 96 1014.3
20260906102704 60 39 0.0 0.0 0.00 0.00 0.00 96 1014.3
20260906102204 60 36 0.0 0.0 0.00 0.00 0.00 96 1014.2
20260906101704 60 31 0.0 0.0 0.00 0.00 0.00 96 1014.1
20260906101205 60 54 0.0 0.0 0.00 0.00 0.00 96 1013.9
20260906100704 60 22 0.0 0.0 0.00 0.00 0.00 96 1013.9
20260906100205 60 61 0.0 0.0 0.00 0.00 0.00 96 1013.9
20260906095704 60 61 0.0 0.0 0.00 0.00 0.00 97 1013.9
20260906095204 60 61 0.0 0.0 0.00 0.00 0.00 97 1013.8
20260906094704 60 40 0.0 0.0 0.00 0.00 0.00 97 1013.7
20260906094204 60 35 0.0 0.0 0.00 0.00 0.00 97 1013.7
20260906093204 60 71 0.0 1.0 0.00 0.00 0.00 97 1013.5
20260906092705 60 36 0.0 0.0 0.00 0.00 0.00 97 1013.5
20260906092204 60 55 0.0 0.0 0.00 0.00 0.00 97 1013.4
20260906091705 60 55 0.0 0.0 0.00 0.00 0.00 97 1013.4
20260906091205 60 248 0.0 0.0 0.00 0.00 0.00 97 1013.4
20260906090705 60 198 0.0 0.0 0.00 0.00 0.00 97 1013.3
20260906090205 60 180 0.0 0.0 0.00 0.00 0.00 97 1013.3
20260906085704 60 180 0.0 0.0 0.00 0.00 0.00 97 1013.3
20260906085204 60 180 0.0 0.0 0.00 0.00 0.00 97 1013.3
20260906084704 60 180 0.0 0.0 0.00 0.00 0.00 97 1013.3
20260906084204 60 155 0.0 0.0 0.00 0.00 0.00 97 1013.2
20260906083204 60 155 0.0 0.0 0.00 0.00 0.00 97 1013.1
20260906082705 60 155 0.0 0.0 0.00 0.00 0.00 97 1013.1
20260906082204 60 155 0.0 0.0 0.00 0.00 0.00 97 1013.0
20260906081705 60 155 0.0 0.0 0.00 0.00 0.00 97 1013.0
20260906081204 60 155 0.0 0.0 0.00 0.00 0.00 97 1013.0
20260906080705 60 155 0.0 0.0 0.00 0.00 0.00 97 1013.1
20260906080204 60 155 0.0 0.0 0.00 0.00 0.00 97 1013.1
20260906075204 60 155 0.0 0.0 0.00 0.00 0.00 97 1013.1
20260906074704 60 155 0.0 0.0 0.00 0.00 0.00 97 1013.1
20260906074204 60 155 0.0 0.0 0.00 0.00 0.00 97 1013.2
20260906073705 60 155 0.0 0.0 0.00 0.00 0.00 97 1013.1
20260906073205 60 173 0.0 0.0 0.00 0.00 0.00 96 1013.1
20260906072704 60 207 0.0 0.0 0.00 0.00 0.00 96 1013.1
20260906072206 60 207 0.0 0.0 0.00 0.00 0.00 96 1013.1
20260906071704 60 207 0.0 0.0 0.00 0.00 0.00 96 1013.1
20260906071206 60 207 0.0 0.0 0.00 0.00 0.00 96 1013.0
20260906070204 60 142 0.0 0.0 0.00 0.00 0.00 96 1012.9
20260906065704 60 142 0.0 0.0 0.00 0.00 0.00 96 1012.8
20260906065204 60 142 0.0 0.0 0.00 0.00 0.00 96 1012.8
20260906064704 60 142 0.0 0.0 0.00 0.00 0.00 96 1012.8
20260906064204 60 142 0.0 0.0 0.00 0.00 0.00 96 1012.8
20260906063704 60 142 0.0 0.0 0.00 0.00 0.00 96 1012.9
20260906062704 60 153 0.0 0.0 0.00 0.00 0.00 96 1012.9
20260906062204 60 153 0.0 0.0 0.00 0.00 0.00 96 1012.8
20260906061704 60 153 0.0 0.0 0.00 0.00 0.00 96 1012.9
20260906061206 60 153 0.0 0.0 0.00 0.00 0.00 96 1012.9
20260906060705 60 153 0.0 0.0 0.00 0.00 0.00 96 1013.0
20260906060204 60 153 0.0 0.0 0.00 0.00 0.00 96 1013.2
20260906055704 60 153 0.0 0.0 0.00 0.00 0.00 96 1013.2
20260906053705 60 153 0.0 0.0 0.00 0.00 0.00 95 1013.2
20260906052704 60 153 0.0 0.0 0.00 0.00 0.00 95 1013.2
20260906052204 60 153 0.0 0.0 0.00 0.00 0.00 95 1013.1
20260906051704 60 153 0.0 0.0 0.00 0.00 0.00 95 1013.0
20260906051204 60 153 0.0 0.0 0.00 0.00 0.00 95 1013.0
20260906050704 60 153 0.0 0.0 0.00 0.00 0.00 94 1013.0
20260906050204 60 153 0.0 0.0 0.00 0.00 0.00 94 1013.0
20260906045704 60 153 0.0 0.0 0.00 0.00 0.00 94 1013.0
20260906045205 60 153 0.0 0.0 0.00 0.00 0.00 94 1013.1
20260906044704 60 153 0.0 0.0 0.00 0.00 0.00 95 1013.0
20260906044204 60 153 0.0 0.0 0.00 0.00 0.00 95 1013.0
20260906043704 60 153 0.0 0.0 0.00 0.00 0.00 96 1013.0
20260906043205 59 85 0.0 0.0 0.00 0.00 0.00 96 1013.0
20260906042704 59 85 0.0 0.0 0.00 0.00 0.00 96 1013.1
20260906041705 59 85 0.0 0.0 0.00 0.00 0.00 96 1013.1
20260906041204 59 86 0.0 0.0 0.00 0.00 0.00 96 1013.2
20260906040704 59 87 0.0 0.0 0.00 0.00 0.00 96 1013.2
20260906040204 59 88 0.0 0.0 0.00 0.00 0.00 96 1013.2
20260906035205 59 78 0.0 2.0 0.00 0.00 0.00 96 1013.1
20260906033204 58 5 0.0 0.0 0.00 0.00 0.00 95 1012.9
20260906032704 58 5 0.0 0.0 0.00 0.00 0.00 95 1013.0
20260906032204 59 15 0.0 2.0 0.00 0.00 0.00 95 1012.9
20260906031704 59 44 0.0 1.0 0.00 0.00 0.00 94 1012.8
20260906031204 59 14 0.0 1.0 0.00 0.00 0.00 94 1012.8
20260906030704 59 26 0.0 0.0 0.00 0.00 0.00 95 1012.8
20260906030205 59 26 0.0 0.0 0.00 0.00 0.00 95 1012.9
20260906025705 59 22 0.0 0.0 0.00 0.00 0.00 94 1012.7
20260906025204 59 13 0.0 1.0 0.00 0.00 0.00 94 1012.6
20260906024704 59 308 0.0 1.0 0.00 0.00 0.00 94 1012.6
20260906024204 59 273 0.0 1.0 0.00 0.00 0.00 94 1012.6
20260906023704 59 273 0.0 2.0 0.00 0.00 0.00 95 1012.5
20260906023205 59 14 0.0 2.0 0.00 0.00 0.00 95 1012.5
20260906022704 59 42 1.0 3.0 0.00 0.00 0.00 94 1012.5
20260906022205 59 51 2.0 7.0 0.00 0.00 0.00 94 1012.5
20260906021704 59 345 1.0 3.0 0.00 0.00 0.00 94 1012.6
20260906021204 59 7 0.0 2.0 0.00 0.00 0.00 94 1012.6
20260906020704 59 342 1.0 2.0 0.00 0.00 0.00 94 1012.5
20260906014704 60 39 0.0 2.0 0.00 0.00 0.00 92 1012.3
20260906014205 60 66 0.0 0.0 0.00 0.00 0.00 93 1012.3
20260906013704 60 32 0.0 0.0 0.00 0.00 0.00 93 1012.3
20260906012205 61 5 0.0 0.0 0.00 0.00 0.00 92 1012.2
20260906011704 61 5 0.0 0.0 0.00 0.00 0.00 92 1012.3
20260906010704 61 5 0.0 0.0 0.00 0.00 0.00 91 1012.5
20260906010204 62 5 0.0 0.0 0.00 0.00 0.00 90 1012.5
20260906005204 62 5 0.0 0.0 0.00 0.00 0.00 89 1012.5
20260906004704 62 5 0.0 0.0 0.00 0.00 0.00 89 1012.5
20260906004206 62 5 0.0 0.0 0.00 0.00 0.00 89 1012.4
20260906003704 62 5 0.0 0.0 0.00 0.00 0.00 90 1012.4
20260906003204 62 5 0.0 0.0 0.00 0.00 0.00 90 1012.3
20260906002705 62 5 0.0 0.0 0.00 0.00 0.00 90 1012.1
20260906002204 63 5 0.0 0.0 0.00 0.00 0.00 89 1012.1
20260906001704 63 5 0.0 0.0 0.00 0.00 0.00 88 1012.1
20260906001204 63 5 0.0 0.0 0.00 0.00 0.00 87 1012.2
20260906000704 63 5 0.0 0.0 0.00 0.00 0.00 86 1012.1
20260906000205 64 5 0.0 0.0 0.00 0.00 0.00 85 1012.1
20260905235704 64 5 0.0 0.0 0.00 0.00 0.00 85 1012.0
20260905235204 64 5 0.0 0.0 0.00 0.00 0.00 85 1012.0
20260905234704 65 5 0.0 0.0 0.00 0.00 0.00 85 1012.0
20260905234204 65 349 0.0 0.0 0.00 0.00 0.00 84 1011.9
20260905233704 65 340 0.0 0.0 0.00 0.00 0.00 83 1011.9
20260905233203 65 340 0.0 0.0 0.00 0.00 0.00 82 1012.0
20260905231704 65 340 0.0 0.0 0.00 0.00 0.00 85 1011.8
20260905231204 65 340 0.0 0.0 0.00 0.00 0.00 84 1011.7
20260905230705 65 340 0.0 1.0 0.00 0.00 0.00 84 1011.7
20260905230204 65 340 1.0 2.0 0.00 0.00 0.00 84 1011.6
20260905225704 65 349 1.0 3.0 0.00 0.00 0.00 84 1011.5
20260905225204 66 21 1.0 3.0 0.00 0.00 0.00 83 1011.6
20260905224704 66 348 1.0 3.0 0.00 0.00 0.00 83 1011.5
20260905224204 66 350 1.0 3.0 0.00 0.00 0.00 83 1011.5
20260905223703 67 355 1.0 2.0 0.00 0.00 0.00 83 1011.5
20260905223204 67 358 1.0 3.0 0.00 0.00 0.00 82 1011.5
20260905222705 68 73 1.0 2.0 0.00 0.00 0.00 81 1011.4
20260905220704 70 1 1.0 2.0 0.00 0.00 0.00 78 1011.4
20260905220204 70 356 0.0 2.0 0.00 0.00 0.00 76 1011.3
20260905214705 72 5 2.0 3.0 0.00 0.00 0.00 73 1011.2
20260905214204 72 355 2.0 3.0 0.00 0.00 0.00 73 1011.2
20260905213704 73 350 2.0 3.0 0.00 0.00 0.00 72 1011.2
20260905213205 73 39 2.0 3.0 0.00 0.00 0.00 73 1011.2
20260905212204 73 347 2.0 3.0 0.00 0.00 0.00 76 1011.0
20260905211204 72 332 1.0 2.0 0.00 0.00 0.00 75 1011.2
20260905210704 73 292 1.0 3.0 0.00 0.00 0.00 74 1011.1
20260905210204 73 14 2.0 3.0 0.00 0.00 0.00 72 1011.1
20260905205704 74 26 2.0 3.0 0.00 0.00 0.00 72 1011.2
20260905205205 74 55 1.0 3.0 0.00 0.00 0.00 72 1011.0
20260905204703 75 16 1.0 3.0 0.00 0.00 0.00 70 1011.0
20260905203704 76 75 1.0 2.0 0.00 0.00 0.00 74 1010.9
20260905203204 76 324 1.0 3.0 0.00 0.00 0.00 72 1011.0
20260905202704 75 306 1.0 3.0 0.00 0.00 0.00 74 1010.9
20260905202204 76 5 2.0 5.0 0.00 0.00 0.00 72 1010.9
20260905201703 76 270 1.0 3.0 0.00 0.00 0.00 72 1010.8
20260905201203 77 100 2.0 3.0 0.00 0.00 0.00 72 1010.9
20260905200703 76 135 1.0 2.0 0.00 0.00 0.00 71 1010.8
20260905200204 76 223 1.0 3.0 0.00 0.00 0.00 71 1010.8
20260905195704 76 14 2.0 3.0 0.00 0.00 0.00 73 1010.7
20260905195204 76 10 1.0 6.0 0.00 0.00 0.00 72 1010.7
20260905194704 76 59 3.0 12.0 0.00 0.00 0.00 73 1010.7
20260905194204 76 74 2.0 6.0 0.00 0.00 0.00 74 1010.7
20260905193703 75 324 0.0 2.0 0.00 0.00 0.00 73 1010.8
20260905193204 75 347 1.0 9.0 0.00 0.00 0.00 76 1010.7
20260905192704 74 63 1.0 5.0 0.00 0.00 0.00 78 1010.7
20260905192204 73 333 1.0 3.0 0.00 0.00 0.00 78 1010.8
20260905191704 73 107 1.0 3.0 0.00 0.00 0.00 79 1010.9
20260905191204 73 10 1.0 2.0 0.00 0.00 0.00 79 1010.8
20260905190704 73 25 0.0 2.0 0.00 0.00 0.00 78 1010.9
20260905190204 73 350 1.0 3.0 0.00 0.00 0.00 79 1011.0